Regional Weather Roundup
Issued by NWS

Home | Current Version | Previous Version | Graphics & Text | Print | Product List | Glossary On
Versions: 1 2 3 4 5 6 7 8 9 10 11 12 13 14 15 16 17 18 19 20 21 22 23 24 25 26 27 28 29 30 31 32 33 34 35 36 37 38 39 40 41 42 43 44 45 46 47 48 49 50
980
ASUS43 KIND 191000
RWRIN

WEATHER ROUNDUP FOR INDIANA
NATIONAL WEATHER SERVICE INDIANAPOLIS IN
600 AM EDT THU OCT 19 2017

NOTE: "FAIR" INDICATES FEW OR NO CLOUDS BELOW 12,000 FEET WITH NO
SIGNIFICANT WEATHER AND/OR OBSTRUCTIONS TO VISIBILITY.

* - STATION DOES NOT REPORT WEATHER SUCH AS PRECIPITATION OR FOG.

+ - STATION NOT QUALITY CONTROLLED BY THE NATIONAL WEATHER SERVICE.
    USE DATA WITH CAUTION...ESPECIALLY DEWPOINT AND RELATIVE
    HUMIDITY OBSERVATIONS.

INZ001>003-010>013-019-020-191100-
NORTHWEST INDIANA

CITY           SKY/WX    TMP DP  RH WIND       PRES   REMARKS
GARY /AIRPORT/ CLEAR     54  46  76 SW9       30.07S
MICHIGAN CITY+ CLEAR     50  45  81 SW6       30.07S
MONTICELLO +   CLEAR     52  47  83 SW8       30.11R
RENSSELAER +   CLEAR     52  43  71 S8        30.10R

$$

LMZ046-743>745-191100-
SOUTHERN LAKE MICHIGAN

STATION/POSITION TIME  TEMP    WIND        PRES    WAVE
                       AIR SEA DIR/SP/G            HT
                 (UTC) (F)     (DEG/KT/KT) (MB)    (FT)
BURNS HARBOR     0940   58     210/ 14/ 22 1018.3S
MICHIGAN CITY    0930   55     180/ 10/ 12   N/A
5NW MICH CITY    0950   57 57  220/ 12/ 14   N/A     2

$$

INZ004-005-014>016-021>024-191100-
NORTH CENTRAL INDIANA

CITY           SKY/WX    TMP DP  RH WIND       PRES   REMARKS
GOSHEN         CLEAR     53  44  71 SW12      30.08S
PERU/GRISSOM   CLEAR     52  47  82 SW10      30.11S
SOUTH BEND     CLEAR     52  46  80 SW10      30.08R

$$

INZ006>009-017-018-025>027-191100-
NORTHEAST INDIANA

CITY           SKY/WX    TMP DP  RH WIND       PRES   REMARKS
FORT WAYNE     PTCLDY    49  44  83 SW9       30.12S
KENDALLVILLE + CLEAR     51  46  81 SW9       30.09S

$$

INZ028-029-035-036-043>045-051>053-191100-
WEST CENTRAL INDIANA

CITY           SKY/WX    TMP DP  RH WIND       PRES   REMARKS
LAFAYETTE      CLEAR     52  47  83 SW5       30.12R
TERRE HAUTE    CLEAR     51  45  79 S7        30.16S

$$

INZ030>032-037>040-046>048-054>057-064-065-191100-
CENTRAL INDIANA

CITY           SKY/WX    TMP DP  RH WIND       PRES   REMARKS
INDIANAPOLIS   PTCLDY    49  44  83 S6        30.17S
-EAGLE CREEK   CLEAR     49  44  83 S3        30.15S
KOKOMO +       CLEAR     54  46  74 SW9       30.14R
MT COMFORT *+  CLEAR     46  46 100 S6        30.17R
SHELBYVILLE    CLEAR     49  43  80 S7        30.18S

$$

INZ033-034-041-042-049-050-058-059-191100-
EAST CENTRAL INDIANA

CITY           SKY/WX    TMP DP  RH WIND       PRES   REMARKS
MUNCIE         CLEAR     55  45  68 SW8       30.15R
RICHMOND +     CLEAR     45  43  93 S6        30.19S

$$

INZ060-061-067>069-081>083-085>088-191100-
SOUTHWEST INDIANA

CITY           SKY/WX    TMP DP  RH WIND       PRES   REMARKS
EVANSVILLE     CLEAR     49  46  90 CALM      30.22R
HUNTINGBURG +  CLEAR     49  45  86 S5        30.22R

$$

INZ062-063-066-070>080-084-089>092-191100-
SOUTH CENTRAL AND SOUTHEAST INDIANA

CITY           SKY/WX    TMP DP  RH WIND       PRES   REMARKS
BLOOMINGTON    CLEAR     45  41  86 S6        30.18S
MADISON *+     CLEAR     43  41  93 CALM      30.24S
SEYMOUR +      CLEAR     43  41  93 CALM      30.20S

$$





USA.gov is the U.S. government's official web portal to all federal, state and local government web resources and services.